Location: Makanda
(37.6176°N, 89.2090°W)
Time: 21:09:21
(UTC+00:00)

TSX-5 - Pass Details

Date: 23 September 2019
Orbit: 404 x 1333 km, 68.9° (Epoch: 19 October)

Event Time Altitude Azimuth Distance (km) Brightness Sun altitude
Exits shadow 10:30:57 36° 271° (W) 675 3.7 -15.4°
Maximum altitude 10:31:28 39° 298° (WNW) 630 3.7 -15.3°
Drops below altitude 10° 10:34:26 10° 9° (N) 1,467 6.3 -14.8°
Sets 10:36:34 0° 18° (NNE) 2,354 7.5 -14.4°
